VK2XSE Weather Reports


Display with metric or nautical units.
time (UTC)temp
F
wind
direction
speed
MPH
gust
MPH
rain 1hr
in
rain 24hr
in
rain mn
in
humidity
%
barometer
mb
20260506202517 45 270 3.0 7.0 0.00 0.00 0.00 74 1021.4
20260506201517 46 0 2.0 5.0 0.00 0.00 0.00 72 1021.3
20260506200517 46 248 2.0 6.0 0.00 0.00 0.00 71 1021.1
20260506195517 46 248 2.0 7.0 0.00 0.00 0.00 71 1021.0
20260506194517 46 248 3.0 7.0 0.00 0.00 0.00 71 1021.2
20260506193517 47 248 2.0 4.0 0.00 0.00 0.00 71 1021.0
20260506192517 47 0 2.0 4.0 0.00 0.00 0.00 70 1020.9
20260506191517 47 248 2.0 4.0 0.00 0.00 0.00 69 1020.9
20260506190517 48 0 4.0 8.0 0.00 0.00 0.00 69 1020.7
20260506185517 48 0 5.0 11.0 0.00 0.00 0.00 72 1020.5
20260506184516 48 0 5.0 9.0 0.00 0.00 0.00 73 1020.5
20260506183516 49 248 4.0 10.0 0.00 0.00 0.00 75 1020.4
20260506182516 49 248 5.0 9.0 0.00 0.00 0.00 73 1020.3
20260506181516 50 0 4.0 8.0 0.00 0.00 0.00 72 1020.3
20260506180516 50 225 4.0 8.0 0.00 0.00 0.00 69 1020.0
20260506175516 50 225 5.0 11.0 0.00 0.00 0.00 72 1020.0
20260506174516 51 248 3.0 7.0 0.00 0.00 0.00 77 1019.9
20260506173516 52 225 3.0 7.0 0.00 0.00 0.00 81 1019.9
20260506172516 53 248 7.0 18.0 0.00 0.00 0.00 78 1019.7
20260506171518 53 248 7.0 15.0 0.00 0.00 0.00 76 1019.6
20260506170518 54 248 6.0 12.0 0.00 0.00 0.00 76 1019.5
20260506165518 54 248 5.0 9.0 0.00 0.00 0.00 75 1019.5
20260506164518 54 248 6.0 14.0 0.00 0.00 0.00 75 1019.4
20260506163518 54 248 6.0 14.0 0.00 0.00 0.00 75 1019.4
20260506162518 54 248 5.0 10.0 0.00 0.00 0.00 78 1019.3
20260506161518 53 248 5.0 11.0 0.00 0.00 0.00 83 1019.4
20260506160518 53 270 6.0 11.0 0.00 0.00 0.00 85 1019.4
20260506155518 53 270 5.0 9.0 0.00 0.00 0.00 84 1019.3
20260506154518 54 0 7.0 13.0 0.00 0.00 0.00 80 1019.4
20260506153518 54 270 3.0 6.0 0.00 0.00 0.00 78 1019.2
20260506152518 54 0 2.0 4.0 0.00 0.00 0.00 78 1019.2
20260506151518 54 0 3.0 6.0 0.00 0.00 0.00 77 1019.2
20260506150518 54 0 1.0 3.0 0.00 0.00 0.00 78 1019.1
20260506145518 53 0 1.0 4.0 0.00 0.00 0.00 79 1019.2
20260506144518 53 0 1.0 4.0 0.00 0.00 0.00 79 1019.2
20260506143518 53 0 1.0 2.0 0.00 0.00 0.00 79 1019.1
20260506142518 53 270 1.0 2.0 0.00 0.00 0.00 79 1019.2
20260506141518 53 270 1.0 3.0 0.00 0.00 0.00 79 1019.4
20260506140518 53 270 2.0 5.0 0.00 0.00 0.00 79 1019.5
20260506135518 53 0 1.0 2.0 0.00 0.00 0.00 80 1019.6
20260506134518 53 0 2.0 3.0 0.00 0.00 0.00 81 1019.5
20260506133518 52 0.0 2.0 0.00 0.00 0.00 84 1019.4
20260506132517 51 315 1.0 2.0 0.00 0.00 0.00 85 1019.4
20260506131518 51 315 1.0 2.0 0.00 0.00 0.00 84 1019.5
20260506130517 51 0.0 2.0 0.00 0.00 0.00 85 1019.6
20260506125517 51 0.0 2.0 0.00 0.00 0.00 84 1019.6
20260506124517 51 0.0 2.0 0.00 0.00 0.00 84 1019.6
20260506123517 51 338 1.0 2.0 0.00 0.00 0.00 83 1019.7
20260506122517 51 293 1.0 1.0 0.00 0.00 0.00 82 1020.0
20260506121517 51 0.0 2.0 0.00 0.00 0.00 83 1020.2
20260506120517 51 0.0 2.0 0.00 0.00 0.00 82 1020.4
20260506115517 52 0.0 1.0 0.00 0.00 0.00 82 1020.4
20260506114517 52 0.0 2.0 0.00 0.00 0.00 81 1020.4
20260506113517 52 0.0 1.0 0.00 0.00 0.00 80 1020.4
20260506112517 53 0.0 1.0 0.00 0.00 0.00 80 1020.4
20260506111517 53 0 1.0 2.0 0.00 0.00 0.00 79 1020.4
20260506110517 53 293 1.0 2.0 0.00 0.00 0.00 78 1020.3
20260506105517 53 293 1.0 2.0 0.00 0.00 0.00 78 1020.4
20260506104517 54 315 1.0 3.0 0.00 0.00 0.00 77 1020.3
20260506103517 54 315 1.0 4.0 0.00 0.00 0.00 76 1020.3
20260506102517 55 293 1.0 2.0 0.00 0.00 0.00 76 1020.1
20260506101517 55 0.0 2.0 0.00 0.00 0.00 76 1020.1
20260506095517 55 293 1.0 1.0 0.00 0.00 0.00 75 1020.1
20260506094517 55 0.0 2.0 0.00 0.00 0.00 74 1020.0
20260506093517 55 0.0 0.0 0.00 0.00 0.00 74 1020.0
20260506092517 55 0.0 2.0 0.00 0.00 0.00 73 1020.0
20260506091517 55 0.0 2.0 0.00 0.00 0.00 72 1020.1
20260506090517 56 0.0 2.0 0.00 0.00 0.00 72 1020.1
20260506085517 56 0.0 2.0 0.00 0.00 0.00 71 1020.1
20260506084517 56 0.0 1.0 0.00 0.00 0.00 70 1020.1
20260506083517 57 0.0 0.0 0.00 0.00 0.00 69 1020.2
20260506082517 57 0.0 2.0 0.00 0.00 0.00 68 1020.2
20260506081517 58 0.0 0.0 0.00 0.00 0.00 66 1020.2
20260506080517 59 270 1.0 2.0 0.00 0.00 0.00 65 1020.2
20260506073517 60 0.0 2.0 0.00 0.00 0.00 65 1019.9
20260506072517 60 0.0 2.0 0.00 0.00 0.00 65 1019.8
20260506071517 60 0.0 3.0 0.00 0.00 0.00 64 1019.7
20260506070517 60 0.0 2.0 0.00 0.00 0.00 65 1019.6
20260506062517 61 270 1.0 4.0 0.00 0.00 0.00 64 1019.8
20260506061516 61 270 1.0 3.0 0.00 0.00 0.00 63 1019.9
20260506060516 61 0 3.0 6.0 0.00 0.00 0.00 61 1019.8
20260506050518 61 315 1.0 3.0 0.00 0.00 0.00 63 1020.1
20260506044518 61 270 1.0 3.0 0.00 0.00 0.00 62 1020.2
20260506043518 61 315 2.0 4.0 0.00 0.00 0.00 63 1020.2
20260506042518 61 293 2.0 6.0 0.00 0.00 0.00 63 1020.3
20260506041518 61 315 2.0 3.0 0.00 0.00 0.00 62 1020.5
20260506040518 60 293 3.0 6.0 0.00 0.00 0.00 63 1020.5
20260506035518 60 270 2.0 6.0 0.00 0.00 0.00 62 1020.6
20260506034518 60 270 2.0 4.0 0.00 0.00 0.00 64 1020.7
20260506033518 61 270 2.0 8.0 0.00 0.00 0.00 63 1020.7
20260506032518 61 315 2.0 6.0 0.00 0.00 0.00 63 1020.8
20260506031518 61 315 3.0 7.0 0.00 0.00 0.00 63 1020.9
20260506030518 61 338 2.0 7.0 0.00 0.00 0.00 64 1021.0
20260506025518 61 270 3.0 7.0 0.00 0.00 0.00 66 1021.1
20260506024518 60 315 3.0 8.0 0.00 0.00 0.00 66 1021.3
20260506023518 60 270 1.0 4.0 0.00 0.00 0.00 67 1021.4
20260506022518 60 270 3.0 7.0 0.00 0.00 0.00 68 1021.6
20260506021518 60 270 3.0 8.0 0.00 0.00 0.00 68 1021.8
20260506020518 60 270 3.0 9.0 0.00 0.00 0.00 69 1022.0
20260506015518 60 270 2.0 4.0 0.00 0.00 0.00 71 1022.2
20260506014518 60 270 2.0 8.0 0.00 0.00 0.00 72 1022.2
20260506013518 59 315 2.0 5.0 0.00 0.00 0.00 72 1022.4
20260506012518 59 270 2.0 7.0 0.00 0.00 0.00 73 1022.6
20260506011518 58 270 2.0 6.0 0.00 0.00 0.00 77 1022.8
20260506010518 58 270 2.0 3.0 0.00 0.00 0.00 79 1023.0
20260506005518 58 270 2.0 5.0 0.00 0.00 0.00 79 1023.0
20260506004518 57 270 1.0 3.0 0.00 0.00 0.00 80 1023.0
20260506003518 57 270 2.0 3.0 0.00 0.00 0.00 81 1023.2
20260506002518 57 293 1.0 2.0 0.00 0.00 0.00 82 1023.3
20260506001518 56 0 1.0 3.0 0.00 0.00 0.00 82 1023.4
20260506000518 56 270 1.0 3.0 0.00 0.00 0.00 85 1023.3
20260505235518 55 293 1.0 2.0 0.00 0.00 0.00 86 1023.2
20260505234518 54 293 1.0 2.0 0.00 0.00 0.00 89 1023.2
20260505233518 53 315 1.0 3.0 0.00 0.00 0.00 92 1023.3
20260505232517 52 270 1.0 2.0 0.00 0.00 0.00 93 1023.2
20260505231518 51 293 1.0 2.0 0.00 0.00 0.00 94 1023.3
20260505230518 51 270 1.0 3.0 0.00 0.00 0.00 95 1023.3
20260505225517 50 270 1.0 3.0 0.00 0.00 0.00 95 1023.3
20260505224518 49 270 1.0 1.0 0.00 0.00 0.00 95 1023.2
20260505223517 48 0 1.0 1.0 0.00 0.00 0.00 94 1023.2
20260505222517 47 0.0 1.0 0.00 0.00 0.00 94 1023.1
20260505221517 46 0.0 2.0 0.00 0.00 0.00 94 1022.9
20260505220517 46 0.0 2.0 0.00 0.00 0.00 94 1022.9
20260505215517 45 0.0 1.0 0.00 0.00 0.00 93 1022.8
20260505214517 45 0.0 2.0 0.00 0.00 0.00 93 1022.8
20260505213517 44 0.0 2.0 0.00 0.00 0.00 93 1022.7
20260505212517 44 0.0 0.0 0.00 0.00 0.00 92 1022.6
20260505211517 44 0.0 0.0 0.00 0.00 0.00 92 1022.5
20260505210517 44 0.0 0.0 0.00 0.00 0.00 92 1022.5
20260505205517 45 0.0 0.0 0.00 0.00 0.00 92 1022.5
20260505204517 45 0.0 0.0 0.00 0.00 0.00 92 1022.5
20260505203517 45 0.0 0.0 0.00 0.00 0.00 92 1022.5